Time,TemperatureF,DewpointF,PressureIn,WindDirection,WindDirectionDegrees,WindSpeedMPH,WindSpeedGustMPH,Humidity,HourlyPrecipIn,Conditions,Clouds,dailyrainin,SoftwareType,DateUTC
2016-07-23 00:00:00,76.8,71.9,30.05,N/A,-737280,0.0,0.0,85,0.00,,,0.00,Wunderground PWS Mod,2016-07-23 04:00:00,
2016-07-23 00:05:00,76.7,71.8,30.05,South,188,0.0,0.0,85,0.00,,,0.00,Wunderground PWS Mod,2016-07-23 04:05:00,
2016-07-23 00:15:00,76.6,71.7,30.05,South,188,0.0,0.0,85,0.00,,,0.00,Wunderground PWS Mod,2016-07-23 04:15:00,
2016-07-23 00:25:00,76.5,71.7,30.05,South,188,0.0,0.0,85,0.00,,,0.00,Wunderground PWS Mod,2016-07-23 04:25:00,
2016-07-23 00:30:00,76.4,71.6,30.05,South,188,0.0,0.0,85,0.00,,,0.00,Wunderground PWS Mod,2016-07-23 04:30:00,
2016-07-23 00:40:00,76.3,71.5,30.04,South,188,0.0,0.0,85,0.00,,,0.00,Wunderground PWS Mod,2016-07-23 04:40:00,
2016-07-23 00:45:00,76.3,71.5,30.04,South,188,0.0,0.0,85,0.00,,,0.00,Wunderground PWS Mod,2016-07-23 04:45:00,
2016-07-23 00:55:00,76.2,71.4,30.04,South,188,0.0,0.0,85,0.00,,,0.00,Wunderground PWS Mod,2016-07-23 04:55:00,
2016-07-23 01:05:00,76.1,71.3,30.03,South,188,0.0,0.0,85,0.00,,,0.00,Wunderground PWS Mod,2016-07-23 05:05:00,
2016-07-23 01:15:00,76.0,71.2,30.03,South,188,0.0,0.0,85,0.00,,,0.00,Wunderground PWS Mod,2016-07-23 05:15:00,
2016-07-23 01:20:00,76.0,71.5,30.03,South,188,0.0,0.0,86,0.00,,,0.00,Wunderground PWS Mod,2016-07-23 05:20:00,
2016-07-23 01:25:00,75.9,71.4,30.03,South,188,0.0,0.0,86,0.00,,,0.00,Wunderground PWS Mod,2016-07-23 05:25:00,
2016-07-23 01:35:00,75.9,71.4,30.03,South,188,0.0,0.0,86,0.00,,,0.00,Wunderground PWS Mod,2016-07-23 05:35:00,
2016-07-23 01:45:00,75.8,71.3,30.03,South,188,0.0,0.0,86,0.00,,,0.00,Wunderground PWS Mod,2016-07-23 05:45:00,
2016-07-23 01:50:00,75.8,71.3,30.03,N/A,-737280,0.0,0.0,86,0.00,,,0.00,Wunderground PWS Mod,2016-07-23 05:50:00,
2016-07-23 02:00:00,76.0,71.5,30.03,South,188,0.0,0.0,86,0.00,,,0.00,Wunderground PWS Mod,2016-07-23 06:00:00,
2016-07-23 02:05:00,75.9,71.4,30.03,South,188,0.0,0.0,86,0.00,,,0.00,Wunderground PWS Mod,2016-07-23 06:05:00,
2016-07-23 02:15:00,75.8,71.7,30.03,South,188,0.0,0.0,87,0.00,,,0.00,Wunderground PWS Mod,2016-07-23 06:15:00,
2016-07-23 02:20:00,75.9,71.8,30.03,South,188,0.0,0.0,87,0.00,,,0.00,Wunderground PWS Mod,2016-07-23 06:20:00,
2016-07-23 02:25:00,75.9,71.8,30.03,South,188,0.0,0.0,87,0.00,,,0.00,Wunderground PWS Mod,2016-07-23 06:25:00,
2016-07-23 02:35:00,75.8,71.7,30.02,South,188,0.0,0.0,87,0.00,,,0.00,Wunderground PWS Mod,2016-07-23 06:35:00,
2016-07-23 02:45:00,75.8,71.7,30.02,South,188,0.0,0.0,87,0.00,,,0.00,Wunderground PWS Mod,2016-07-23 06:45:00,
2016-07-23 02:50:00,75.8,71.7,30.02,South,188,0.0,0.0,87,0.00,,,0.00,Wunderground PWS Mod,2016-07-23 06:50:00,
2016-07-23 02:55:00,75.8,71.7,30.02,South,188,0.0,0.0,87,0.00,,,0.00,Wunderground PWS Mod,2016-07-23 06:55:00,
2016-07-23 03:05:00,75.6,71.5,30.02,South,188,0.0,0.0,87,0.00,,,0.00,Wunderground PWS Mod,2016-07-23 07:05:00,
2016-07-23 03:15:00,75.7,71.6,30.02,South,188,0.0,0.0,87,0.00,,,0.00,Wunderground PWS Mod,2016-07-23 07:15:00,
2016-07-23 03:20:00,75.7,71.6,30.02,South,188,0.0,0.0,87,0.00,,,0.00,Wunderground PWS Mod,2016-07-23 07:20:00,
2016-07-23 03:25:00,75.7,71.9,30.02,South,188,0.0,0.0,88,0.00,,,0.00,Wunderground PWS Mod,2016-07-23 07:25:00,
2016-07-23 03:35:00,75.7,71.9,30.02,South,188,0.0,0.0,88,0.00,,,0.00,Wunderground PWS Mod,2016-07-23 07:35:00,
2016-07-23 03:45:00,75.7,71.9,30.02,South,188,0.0,0.0,88,0.00,,,0.00,Wunderground PWS Mod,2016-07-23 07:45:00,
2016-07-23 03:55:00,75.6,71.8,30.01,South,188,0.0,0.0,88,0.00,,,0.00,Wunderground PWS Mod,2016-07-23 07:55:00,
2016-07-23 04:00:00,75.5,71.7,30.01,South,188,0.0,0.0,88,0.00,,,0.00,Wunderground PWS Mod,2016-07-23 08:00:00,
2016-07-23 04:05:00,75.5,71.7,30.01,South,188,0.0,0.0,88,0.00,,,0.00,Wunderground PWS Mod,2016-07-23 08:05:00,
2016-07-23 04:15:00,75.5,71.7,30.01,South,188,0.0,0.0,88,0.00,,,0.00,Wunderground PWS Mod,2016-07-23 08:15:00,
2016-07-23 04:20:00,75.5,71.7,30.01,N/A,-737280,0.0,0.0,88,0.00,,,0.00,Wunderground PWS Mod,2016-07-23 08:20:00,
2016-07-23 04:30:00,75.6,71.8,30.01,South,188,0.0,0.0,88,0.00,,,0.00,Wunderground PWS Mod,2016-07-23 08:30:00,
2016-07-23 04:35:00,75.5,71.7,30.01,South,188,0.0,0.0,88,0.00,,,0.00,Wunderground PWS Mod,2016-07-23 08:35:00,
2016-07-23 04:45:00,75.3,71.5,30.01,South,188,0.0,0.0,88,0.00,,,0.00,Wunderground PWS Mod,2016-07-23 08:45:00,
2016-07-23 04:55:00,75.3,71.8,30.01,South,188,0.0,0.0,89,0.00,,,0.00,Wunderground PWS Mod,2016-07-23 08:55:00,
2016-07-23 05:05:00,75.2,71.7,30.00,South,188,0.0,0.0,89,0.00,,,0.00,Wunderground PWS Mod,2016-07-23 09:05:00,
2016-07-23 05:10:00,75.1,71.6,30.00,South,188,0.0,0.0,89,0.00,,,0.00,Wunderground PWS Mod,2016-07-23 09:10:00,
2016-07-23 05:15:00,75.1,71.6,30.00,South,188,0.0,0.0,89,0.00,,,0.00,Wunderground PWS Mod,2016-07-23 09:15:00,
2016-07-23 05:25:00,75.0,71.5,30.00,South,188,0.0,0.0,89,0.00,,,0.00,Wunderground PWS Mod,2016-07-23 09:25:00,
2016-07-23 05:35:00,75.0,71.5,30.00,South,188,0.0,0.0,89,0.00,,,0.00,Wunderground PWS Mod,2016-07-23 09:35:00,
2016-07-23 05:40:00,75.0,71.5,30.00,South,188,0.0,0.0,89,0.00,,,0.00,Wunderground PWS Mod,2016-07-23 09:40:00,
2016-07-23 05:50:00,74.9,71.4,30.00,South,188,0.0,0.0,89,0.00,,,0.00,Wunderground PWS Mod,2016-07-23 09:50:00,
2016-07-23 05:55:00,74.9,71.4,30.00,South,188,0.0,0.0,89,0.00,,,0.00,Wunderground PWS Mod,2016-07-23 09:55:00,
2016-07-23 06:05:00,74.8,71.3,30.00,South,188,0.0,0.0,89,0.00,,,0.00,Wunderground PWS Mod,2016-07-23 10:05:00,
2016-07-23 06:15:00,74.8,71.3,30.00,South,188,0.0,0.0,89,0.00,,,0.00,Wunderground PWS Mod,2016-07-23 10:15:00,
2016-07-23 06:20:00,74.8,71.3,30.00,N/A,-737280,0.0,0.0,89,0.00,,,0.00,Wunderground PWS Mod,2016-07-23 10:20:00,
2016-07-23 06:25:00,74.7,71.2,30.00,South,188,0.0,0.0,89,0.00,,,0.00,Wunderground PWS Mod,2016-07-23 10:25:00,
2016-07-23 06:35:00,74.6,71.1,30.00,South,187,0.0,0.0,89,0.00,,,0.00,Wunderground PWS Mod,2016-07-23 10:35:00,
2016-07-23 06:40:00,74.6,71.1,30.00,South,187,0.0,0.0,89,0.00,,,0.00,Wunderground PWS Mod,2016-07-23 10:40:00,
2016-07-23 06:50:00,74.5,71.0,30.00,South,187,0.0,0.0,89,0.00,,,0.00,Wunderground PWS Mod,2016-07-23 10:50:00,
2016-07-23 06:55:00,74.5,71.0,30.00,South,187,0.0,0.0,89,0.00,,,0.00,Wunderground PWS Mod,2016-07-23 10:55:00,
2016-07-23 07:00:00,74.5,71.0,30.00,N/A,-737280,0.0,0.0,89,0.00,,,0.00,Wunderground PWS Mod,2016-07-23 11:00:00,
2016-07-23 07:05:00,74.4,70.9,30.00,South,187,0.0,0.0,89,0.00,,,0.00,Wunderground PWS Mod,2016-07-23 11:05:00,
2016-07-23 07:15:00,74.4,71.3,30.00,South,187,0.0,0.0,90,0.00,,,0.00,Wunderground PWS Mod,2016-07-23 11:15:00,
2016-07-23 07:25:00,74.7,71.6,30.01,South,187,0.0,0.0,90,0.00,,,0.00,Wunderground PWS Mod,2016-07-23 11:25:00,
2016-07-23 07:30:00,74.6,71.5,30.01,N/A,-737280,0.0,0.0,90,0.00,,,0.00,Wunderground PWS Mod,2016-07-23 11:30:00,
2016-07-23 07:40:00,75.1,72.0,30.01,South,187,0.0,0.0,90,0.00,,,0.00,Wunderground PWS Mod,2016-07-23 11:40:00,
2016-07-23 07:45:00,75.2,72.1,30.01,South,187,0.0,0.0,90,0.00,,,0.00,Wunderground PWS Mod,2016-07-23 11:45:00,
2016-07-23 07:55:00,75.4,72.3,30.00,South,187,0.0,0.0,90,0.00,,,0.00,Wunderground PWS Mod,2016-07-23 11:55:00,
2016-07-23 08:05:00,75.8,73.0,30.01,South,187,0.0,0.0,91,0.00,,,0.00,Wunderground PWS Mod,2016-07-23 12:05:00,
2016-07-23 08:10:00,75.8,73.0,30.01,N/A,-737280,0.0,0.0,91,0.00,,,0.00,Wunderground PWS Mod,2016-07-23 12:10:00,
2016-07-23 08:15:00,76.1,73.3,30.01,South,187,0.0,0.0,91,0.00,,,0.00,Wunderground PWS Mod,2016-07-23 12:15:00,
2016-07-23 08:25:00,76.1,73.3,30.01,N/A,-737280,0.0,0.0,91,0.00,,,0.00,Wunderground PWS Mod,2016-07-23 12:25:00,
2016-07-23 08:35:00,76.7,73.5,30.02,South,187,0.0,0.0,90,0.00,,,0.00,Wunderground PWS Mod,2016-07-23 12:35:00,
2016-07-23 08:45:00,77.0,73.8,30.02,South,188,0.0,0.0,90,0.00,,,0.00,Wunderground PWS Mod,2016-07-23 12:45:00,
2016-07-23 08:50:00,77.2,74.0,30.02,South,188,0.0,0.0,90,0.00,,,0.00,Wunderground PWS Mod,2016-07-23 12:50:00,
2016-07-23 08:55:00,77.5,74.3,30.02,South,188,0.0,0.0,90,0.00,,,0.00,Wunderground PWS Mod,2016-07-23 12:55:00,
2016-07-23 09:05:00,77.9,74.4,30.02,South,188,0.0,0.0,89,0.00,,,0.00,Wunderground PWS Mod,2016-07-23 13:05:00,
2016-07-23 09:15:00,78.4,74.5,30.02,South,188,0.0,1.0,88,0.00,,,0.00,Wunderground PWS Mod,2016-07-23 13:15:00,
2016-07-23 09:20:00,78.7,74.5,30.02,South,188,0.0,0.0,87,0.00,,,0.00,Wunderground PWS Mod,2016-07-23 13:20:00,
2016-07-23 09:30:00,79.6,74.7,30.02,South,188,0.0,0.0,85,0.00,,,0.00,Wunderground PWS Mod,2016-07-23 13:30:00,
2016-07-23 09:40:00,80.7,74.3,30.02,South,188,0.0,1.0,81,0.00,,,0.00,Wunderground PWS Mod,2016-07-23 13:40:00,
2016-07-23 09:45:00,81.3,74.9,30.02,South,188,0.0,1.0,81,0.00,,,0.00,Wunderground PWS Mod,2016-07-23 13:45:00,
2016-07-23 10:00:00,83.3,75.3,30.02,South,188,0.0,0.0,77,0.00,,,0.00,Wunderground PWS Mod,2016-07-23 14:00:00,
2016-07-23 10:05:00,83.7,74.5,30.02,South,188,0.0,0.0,74,0.00,,,0.00,Wunderground PWS Mod,2016-07-23 14:05:00,
2016-07-23 10:15:00,84.3,73.4,30.02,South,188,0.0,0.0,70,0.00,,,0.00,Wunderground PWS Mod,2016-07-23 14:15:00,
2016-07-23 10:20:00,84.8,73.9,30.02,South,188,0.0,0.0,70,0.00,,,0.00,Wunderground PWS Mod,2016-07-23 14:20:00,
2016-07-23 10:35:00,86.1,73.4,30.02,South,188,0.0,0.0,66,0.00,,,0.00,Wunderground PWS Mod,2016-07-23 14:35:00,
2016-07-23 10:45:00,86.6,74.3,30.02,South,188,0.0,0.0,67,0.00,,,0.00,Wunderground PWS Mod,2016-07-23 14:45:00,
2016-07-23 10:50:00,86.5,74.2,30.02,N/A,-737280,0.0,0.0,67,0.00,,,0.00,Wunderground PWS Mod,2016-07-23 14:50:00,
2016-07-23 10:55:00,87.5,74.3,30.02,East,94,0.0,6.0,65,0.00,,,0.00,Wunderground PWS Mod,2016-07-23 14:55:00,
2016-07-23 11:05:00,88.1,74.4,30.03,ENE,72,1.0,1.0,64,0.00,,,0.00,Wunderground PWS Mod,2016-07-23 15:05:00,
2016-07-23 11:15:00,89.2,75.0,30.03,ENE,65,1.0,1.0,63,0.00,,,0.00,Wunderground PWS Mod,2016-07-23 15:15:00,
2016-07-23 11:25:00,89.5,74.8,30.03,ENE,60,1.0,1.0,62,0.00,,,0.00,Wunderground PWS Mod,2016-07-23 15:25:00,
2016-07-23 11:30:00,89.3,74.6,30.03,ENE,68,0.0,6.0,62,0.00,,,0.00,Wunderground PWS Mod,2016-07-23 15:30:00,
2016-07-23 11:35:00,89.8,74.1,30.04,NE,46,1.0,1.0,60,0.00,,,0.00,Wunderground PWS Mod,2016-07-23 15:35:00,
2016-07-23 11:45:00,90.4,75.1,30.04,ENE,67,1.0,1.0,61,0.00,,,0.00,Wunderground PWS Mod,2016-07-23 15:45:00,
2016-07-23 11:55:00,90.9,75.6,30.04,ENE,69,1.0,1.0,61,0.00,,,0.00,Wunderground PWS Mod,2016-07-23 15:55:00,
2016-07-23 12:05:00,90.8,75.5,30.04,NE,49,1.0,1.0,61,0.00,,,0.00,Wunderground PWS Mod,2016-07-23 16:05:00,
2016-07-23 12:15:00,90.6,75.3,30.04,NE,41,3.0,9.0,61,0.00,,,0.00,Wunderground PWS Mod,2016-07-23 16:15:00,
2016-07-23 12:25:00,89.7,75.9,30.04,NE,38,5.0,13.0,64,0.00,,,0.00,Wunderground PWS Mod,2016-07-23 16:25:00,
2016-07-23 12:35:00,89.8,76.0,30.04,NE,45,6.0,12.0,64,0.00,,,0.00,Wunderground PWS Mod,2016-07-23 16:35:00,
2016-07-23 12:40:00,91.8,76.4,30.04,ENE,74,2.0,2.0,61,0.00,,,0.00,Wunderground PWS Mod,2016-07-23 16:40:00,
2016-07-23 12:45:00,92.8,77.4,30.04,ESE,109,2.0,2.0,61,0.00,,,0.00,Wunderground PWS Mod,2016-07-23 16:45:00,
2016-07-23 12:55:00,92.5,76.6,30.04,NNE,31,2.0,2.0,60,0.00,,,0.00,Wunderground PWS Mod,2016-07-23 16:55:00,
2016-07-23 13:00:00,92.6,76.7,30.04,NNE,23,1.0,12.0,60,0.00,,,0.00,Wunderground PWS Mod,2016-07-23 17:00:00,
2016-07-23 13:10:00,88.0,77.0,30.04,NE,44,3.0,3.0,70,0.00,,,0.00,Wunderground PWS Mod,2016-07-23 17:10:00,
2016-07-23 13:20:00,86.9,77.2,30.03,NE,42,1.0,1.0,73,0.00,,,0.00,Wunderground PWS Mod,2016-07-23 17:20:00,
2016-07-23 13:25:00,86.7,76.6,30.03,NE,42,1.0,1.0,72,0.00,,,0.00,Wunderground PWS Mod,2016-07-23 17:25:00,
2016-07-23 13:35:00,87.1,77.0,30.03,NE,41,1.0,1.0,72,0.00,,,0.00,Wunderground PWS Mod,2016-07-23 17:35:00,
2016-07-23 13:45:00,85.8,75.3,30.03,NE,41,2.0,10.0,71,0.00,,,0.00,Wunderground PWS Mod,2016-07-23 17:45:00,
2016-07-23 13:50:00,85.5,75.9,30.03,NE,49,3.0,3.0,73,0.00,,,0.00,Wunderground PWS Mod,2016-07-23 17:50:00,
2016-07-23 13:55:00,85.3,75.2,30.03,ENE,64,2.0,2.0,72,0.00,,,0.00,Wunderground PWS Mod,2016-07-23 17:55:00,
2016-07-23 14:05:00,85.0,75.4,30.03,ENE,59,1.0,1.0,73,0.00,,,0.00,Wunderground PWS Mod,2016-07-23 18:05:00,
2016-07-23 14:15:00,85.3,75.7,30.03,ENE,59,0.0,7.0,73,0.00,,,0.00,Wunderground PWS Mod,2016-07-23 18:15:00,
2016-07-23 14:20:00,85.5,75.9,30.02,ENE,59,0.0,5.0,73,0.00,,,0.00,Wunderground PWS Mod,2016-07-23 18:20:00,
2016-07-23 14:25:00,85.3,75.7,30.02,NE,50,1.0,1.0,73,0.00,,,0.00,Wunderground PWS Mod,2016-07-23 18:25:00,
2016-07-23 14:35:00,85.6,74.7,30.02,NE,50,0.0,6.0,70,0.00,,,0.00,Wunderground PWS Mod,2016-07-23 18:35:00,
2016-07-23 14:45:00,85.5,74.6,30.02,NE,47,2.0,2.0,70,0.00,,,0.00,Wunderground PWS Mod,2016-07-23 18:45:00,
2016-07-23 14:55:00,85.3,74.4,30.01,NE,47,1.0,1.0,70,0.00,,,0.00,Wunderground PWS Mod,2016-07-23 18:55:00,
2016-07-23 15:00:00,85.3,74.4,30.01,NE,45,1.0,7.0,70,0.00,,,0.00,Wunderground PWS Mod,2016-07-23 19:00:00,
2016-07-23 15:10:00,85.6,74.3,30.01,NE,47,1.0,1.0,69,0.00,,,0.00,Wunderground PWS Mod,2016-07-23 19:10:00,
2016-07-23 15:15:00,85.6,74.3,30.01,NE,48,0.0,7.0,69,0.00,,,0.00,Wunderground PWS Mod,2016-07-23 19:15:00,
2016-07-23 15:25:00,85.6,74.7,30.01,NE,48,0.0,2.0,70,0.00,,,0.00,Wunderground PWS Mod,2016-07-23 19:25:00,
2016-07-23 15:30:00,85.6,74.7,30.01,NE,45,0.0,1.0,70,0.00,,,0.00,Wunderground PWS Mod,2016-07-23 19:30:00,
2016-07-23 15:35:00,85.3,74.8,30.02,NE,48,0.0,1.0,71,0.00,,,0.00,Wunderground PWS Mod,2016-07-23 19:35:00,
2016-07-23 15:45:00,85.3,74.4,30.02,NE,49,0.0,0.0,70,0.00,,,0.00,Wunderground PWS Mod,2016-07-23 19:45:00,
2016-07-23 15:55:00,85.3,74.4,30.01,NE,49,0.0,1.0,70,0.00,,,0.00,Wunderground PWS Mod,2016-07-23 19:55:00,
2016-07-23 16:00:00,85.1,74.2,30.01,NE,49,0.0,4.0,70,0.00,,,0.00,Wunderground PWS Mod,2016-07-23 20:00:00,